NOAA 16 DEB

Satellite information

Favourite Embed

Satellite Type and Status

DEBRISIN ORBIT

Key statistics

Satellite NOAA 16 DEB at a glance.

Uptime

9118

Days in orbit

Revolutions

≈ 14.6

Per day

Orbit

SSO

Sun Synchronous Orbit

Inclination

99.0

Latest

Satellite identification and parameters

Extended collection of information and parameters for NOAA 16 DEB.

Object identification

Identified? True

Debris? True

Object name: NOAA 16 DEB

International designator: 2000-055LA

Object number (NORAD): 41421

Object ID (CCSDS): 41421

Country: UNITED STATES OF AMERICA (US)

Current information (Y/N): Y

RCS size: SMALL

Orbital parameters

Period: 98.644 minutes

Inclination: 98.9619 deg

SMA: 7071.959 km

Apoapsis: 715.88 km

Periapsis: 671.768 km

RAAN: 90.7912 deg

Eccentricy: 0.0031188

Argument of periapsis: 207.4867 deg

Mean anomaly: 152.4682 deg

Mean motion: 14.59799258 rev/day

Mean motion (dot): 0.00022523 rev/day2

B* drag term: 0.0046788618 1/REarth

Two-line elements (TLE)

Creation date: Sept. 7, 2025, 9:49 a.m.

Reference frame: TEME

Reference center: EARTH

Epoch: Sept. 6, 2025, 11:52 p.m. UTC

TLE line 0: 0 NOAA 16 DEB

TLE line 1: 1 41421U 00055LA 25249.99513549 .00022523 00000-0 46789-2 0 9999

TLE line 2: 2 41421 98.9619 90.7912 0031188 207.4867 152.4682 14.59799258497297

Live tracking on map

Real-time ground track for satellite NOAA 16 DEB.

In-orbit conjunctions

A list of the most updated potential collisions computed for object NOAA 16 DEB.

Target Orbit TCA Probability of collision Miss distance Type
COSMOS 2251 DEB LEO 2025-09-03 15:35:42 0.0002355684 5.0 (m) DEBRIS
COSMOS 2251 DEB LEO 2025-05-31 06:37:50 0.0008288287 56.0 (m) DEBRIS
CZ-6A DEB LEO 2024-12-02 10:26:53 0.0002045211 416.0 (m) DEBRIS
SL-8 R/B LEO 2024-07-16 23:50:05 0.0001222685 741.0 (m) ROCKET BODY

Associated space launch

The NOAA K, L and M POES satellites begin the fifth generation of improved environmental monitoring in support of NOAA missions. The instrument payload has significant improvements and additions/deletions. The instrument changes have effected the spacecraft subsystems and data formats.

NOAA 16 DEB was lifted into orbit during the mission ‘Titan II SLV | NOAA 16’, on board a Titan II SLV space rocket.

The launch took place on Sept. 21, 2000, 10:22 a.m. from Space Launch Complex 4W.

For more information about the launch, click the button.

Launch to space Titan II SLV | NOAA 16
Titan II SLV | NOAA 16

Agency: N/A

Status: Launch Successful

Launch date: Sept. 21, 2000, 10:22 a.m. UTC

Rocket: Titan II SLV

Launch pad: Space Launch Complex 4W

Location: Vandenberg SFB, CA, USA

...

Latest news about this satellite

There are no fresh news available about this satellite. Check back as we update our databases every day.


Newsletter sign-up

Weekly statistics, charts and insights to help you stay on top of the space industry.